星链-2476 (STARLINK-2476 )

导读

STARLINK-2476是美国太空探索技术公司(SpaceX)于2021年4月7日发射的星链(Starlink)V1.0低轨互联网卫星,隶属于星链全球卫星互联网项目。卫星运行在近地轨道,近地点约355公里,远地点约357公里,轨道倾角43.001°,周期约91.67分钟。它与其他星链卫星组网,为全球尤其是偏远地区提供高速低延迟的互联网接入服务,同时可支持军事通信、航空互联网等多场景应用,助力缩小全球数字鸿沟。

基本信息
目录编号:
48134
目录名称:
STARLINK-2476
国际标识:
2021-027AU
轨道中心:
EARTH
卫星名称:
星链-2476
卫星全名:
星链-2476 (STARLINK-2476 )
卫星状态:
在轨 (已飞行1985 天)
发射日期:
2021-04-07 UTC
国别 :
美国 (US)
星等 :
--
该卫星已列入 空间交会检测服务 Space Conjunction Data Service (SCDS) ,当前飞行风险评估等级: 无高风险
轨道信息
数据来源 国际轨道数据
星历时间: 2026-09-12T23:07:21+0800
20小时前
查看轨道信息
半长轴: 6848.877km
偏心率: 0.0001273
轨道倾角: 53.162°
近地点辐角 94.245°
升交点赤经 15.274°
平近点角 265.870°
近地点: 469.868km
远地点: 471.612km
周期: 94.013分钟
每日圈数: 15.317002
详细信息
固有亮度:
5
最大亮度:
2.5
卫星平台:
Starlink V1.0
覆盖范围:
全球
运营商:
太空探索技术公司
运营商所在国:
美国
制造商(研发单位):
太空探索技术公司
制造商所在国:
美国
使用方式:
暂无
卫星简介
星链(Starlink)计划是由太空探索技术公司(SpaceX)提出的一个巨型低轨卫星互联网星座项目,计划在2019年至2024年间在太空搭建由约1.2万颗卫星组成的“星链”网络,其中1584颗将部署在地球上空550千米处的近地轨道,并从2020年开始工作。该卫星仍在工作。
2D轨道图
3D轨道图
轨道高度分析图
轨道倾角分析图
轨道综合分析图
查看轨道综合分析图
交会数据列表
事件ID 空间交会对象 最接近时刻(TCA) 交会距离 交会风险概率(CRP) 交会风险指数(CRI) 操作
CDM_260914-152404-813405-320521
2026-09-14T
15:24:34+0000
0.639 km
远距离
7.599343E-5 中风险 0.73
CDM_260914-051604-813405-370021
2026-09-14T
05:16:02+0000
2.364 km
极远距离
1.529092E-6 低风险 0.39
CDM_260913-110604-813406-814321
2026-09-13T
11:06:04+0000
2.699 km
极远距离
1.336061E-6 低风险 0.38
CDM_260914-055604-813406-820722
2026-09-14T
05:56:48+0000
2.870 km
极远距离
1.328499E-6 低风险 0.37
CDM_260913-123804-813406-484421
2026-09-13T
12:38:40+0000
2.815 km
极远距离
1.26345E-6 低风险 0.37
与全量物体交会距离演化趋势
与全量物体交会风险概率演化趋势